www.pogodaiklimat.ru

Архив погоды в Туре (Эвенкия, Россия)

Время
(UTC), дата
18 11.07
21 11.07
00 12.07
03 12.07
06 12.07
09 12.07
12 12.07
15 12.07
18 12.07
21 12.07
00 13.07
03 13.07
06 13.07
09 13.07
12 13.07
15 13.07
18 13.07
21 13.07
00 14.07
03 14.07
06 14.07
09 14.07
12 14.07
15 14.07
18 14.07
21 14.07
00 15.07
03 15.07
06 15.07
09 15.07
12 15.07
15 15.07
18 15.07
21 15.07
00 16.07
03 16.07
06 16.07
09 16.07
12 16.07
15 16.07
18 16.07
21 16.07
00 17.07
03 17.07
06 17.07
09 17.07
12 17.07
15 17.07
18 17.07
21 17.07
00 18.07
03 18.07
06 18.07
09 18.07
12 18.07
15 18.07
Ветер
(напр.,м/с)
Видим. Явления Облачность Т
(С)
Тd
(С)
f
(%)
Тe
(С)
Тes
(С)
Комфортность P
(гПа)
Po
(гПа)
Тmin
(С)
Tmax
(С)
R
(мм)
R24
(мм)
S
(см)
СЗ 1 н/о {ливн. дождь} 9/8 600 м
[Cb cap Ci fib]
+18.9 +18.1 95 +21 +21 комфорт 1006.5 984.5
З 1 20 км 10/10 600 м
[Cb cap]
+18.4 +17.6 95 +20 +20 1006.3 984.3
СЗ 2 20 км 10/10 600 м
[Cb cap]
+19.9 +18.0 89 +23 +23 комфорт 1006.3 984.3 +18.4 2
С 1 10 км дым 10/6 600 м
[Cb cap Ac As]
+22.8 +18.5 77 +29 +30 очень душно 1005.5 983.8
СЗ 2 4000 м мгла 10/10 600 м
[Cb cap]
+23.8 +19.3 76 +29 +29 душно 1004.3 982.6
С 1 4000 м гроза, ливневой дождь 10/10 600 м
[Cb cap]
+22.4 +20.6 90 +29 +29 очень душно 1004.3 982.6
В 1 {11} 10 км слаб. ливневой дождь {гроза} 10/10 600 м
[Cb cap]
+19.5 +18.5 94 +23 +23 комфорт 1004.0 982.1 +23.8 13
ЮВ 1 10 км дым {ливн. дождь} 10/10 600 м
[Cb cap]
+19.2 +18.9 98 +22 +22 комфорт 1003.8 981.9
В 2 н/о дым {ливн. дождь} 10/10 600 м
[Cb cap]
+19.0 +18.5 97 +21 +21 комфорт 1004.1 982.2
В 1 2000 м мгла 10/10 600 м
[Cb cap]
+18.6 +18.1 97 +21 +21 комфорт 1005.0 983.0
штиль 0 2000 м мгла 8/6 1000 м
[Cu hum Ac trans]
+19.6 +18.0 90 +22 +23 комфорт 1005.4 983.4 +18.6 0.3
штиль 0 4000 м слаб. ливневой дождь 10/10 600 м
[Cb cap]
+19.8 +18.8 94 +23 +23 комфорт 1005.5 983.5
4000 м мгла {ливн. осадки} 10/10 600 м
[Cb cap]
+21.5 +18.9 85 1005.3 983.5
ЮЗ 2 4000 м мгла 10/10 600 м
[Cb cap]
+22.8 +18.9 79 +29 +29 очень душно 1005.0 983.3
СЗ 1 4000 м мгла 9/4 600 м
[Cb cap Ac trans Ci fib]
+21.7 +19.3 86 +27 +27 душно 1004.8 983.0 +24.0 0.5
н/о н/о
н/о н/о
В 1 200 м туман, небо не видно ?/? +16.2 +16.2 100 +17 +17 1005.8 983.5
ЮВ 1 500 м туман, небо видно ясно +16.0 +15.8 99 +17 +21 1006.7 984.4 +15.6
СВ 2 20 км {туман} 4/0
[Ci fib]
+24.4 +14.5 54 +27 +36 жарко 1005.8 984.1
ЮВ 2 10 км дым {мгла} 4/4 1000 м
[Cu med, cong]
+27.7 +14.2 44 +30 +37 жарко 1005.3 983.9
н/о н/о +12.5 1004.6 983.3
СВ 1 10 км дым 6/3 1000 м
[Sc Ci fib]
+28.0 +12.5 38 +29 +30 жарко 1004.4 983.0 +29.0
В 1 10 км дым 6/6 1000 м
[Sc]
+21.0 +17.4 80 +26 +26 душно 1005.4 983.5
ЮВ 1 н/о мгла 6/6 1000 м
[Sc]
+17.3 +15.8 91 +18 +18 1006.6 984.4
штиль 0 4000 м мгла 4/4 1000 м
[Sc]
+14.9 +14.4 97 +15 +15 1007.7 985.4
штиль 0 4000 м мгла ясно +16.5 +14.9 90 +16 +21 1008.0 985.7 +14.8
Ю 1 4000 м 4/0
[Ci fib]
+21.6 +16.3 72 +25 +36 комфорт 1007.2 985.4
З 2 4000 м мгла 10/4 1000 м
[Cu med, cong Ac trans Ci fib]
+26.6 +17.6 58 +31 +34 душно 1006.1 984.6
З 1 4000 м мгла 6/0
[Ac trans]
+28.0 +16.8 51 +32 +37 душно 1005.2 983.8
ЮЗ 2 4000 м мгла 8/3 1000 м
[Cu med, cong Ci fib]
+27.9 +18.4 56 +33 +33 очень душно 1005.0 983.6 +28.7
ЮВ 1 4000 м в посл. час гроза {ливн. дождь} 10/8 600 м
[Cb cap Ci fib]
+22.6 +15.4 64 +27 +27 душно 1005.4 983.7
СЗ 2 н/о мгла {гроза, ливн. дождь} 8/4 600 м
[Cb cap Ci fib]
+18.7 +16.9 89 +20 +20 1006.2 984.2
СЗ 2 10 км дым 8/3 1000 м
[Sc Ac trans]
+16.2 +15.5 96 +16 +16 1006.9 984.6
З 1 10 км дым 10/10 600 м
[Cb cap]
+17.1 +15.7 91 +18 +18 1007.4 985.2 +16.2 0.0
СЗ 2 10 км дым 10/10 600 м
[Cb cap]
+22.2 +17.2 73 +27 +27 душно 1006.7 984.9
н/о н/о +25.0 +17.0 61 +39 +30 очень душно 1005.7 984.1
СЗ 3 20 км 9/4 600 м
[Cb cap Ac trans Ci sp]
+25.6 +16.0 55 +29 +31 душно 1005.0 983.5
ЮВ 1 20 км 10/10 600 м
[Cb cap]
+24.2 +15.4 58 +27 +27 жарко 1005.2 983.5 +27.3 1
ЮВ 1 20 км 10/4 600 м
[Cb cap Ac trans Ci fib]
+20.2 +17.9 87 +25 +25 комфорт 1005.2 983.3
штиль 0 н/о дымка 8/3 1000 м
[Sc Ac trans Ci fib]
+15.8 +15.1 96 +16 +16 1005.5 983.2
н/о н/о
З 1 4000 м дымка {туман} 9/3 1000 м
[Sc Ac trans Ci fib]
+15.4 +14.5 94 +16 +18 1005.4 983.1 +14.0
С 2 20 км 8/3 1000 м
[Sc Ac trans Ci fib]
+23.0 +17.2 70 +28 +32 душно 1004.3 982.7
З 2 20 км 10/8 600 м
[Cb cap Ac trans Ci fib]
+20.8 +15.6 72 +25 +26 комфорт 1004.9 983.0
СВ 4-11 {10} 20 км 8/5 600 м
[Cb cap Ac trans Ci fib]
+21.3 +14.3 64 +24 +26 комфорт 1005.5 983.6
С 4 20 км 6/3 1000 м
[Sc Ci fib]
+18.2 +11.0 63 +18 +19 1007.7 985.6 +24.6 0.0
н/о н/о
н/о н/о
СЗ 2 20 км 10/10 600 м
[Cb cap]
+12.8 +9.5 80 +12 +12 1008.6 986.0
СЗ 2 20 км 10/10 600 м
[Cb cap]
+12.6 +9.0 79 +12 +12 1009.4 986.8 +12.6
С 2 20 км 10/10 600 м
[Cb cap]
+13.8 +9.3 74 +13 +13 1009.0 986.5
З 2 20 км 10/10 1000 м
[Sc]
+15.8 +10.1 69 +16 +16 1007.9 985.6
С 1 20 км 9/9 1000 м
[Sc]
+18.3 +11.6 65 +20 +21 1006.7 984.6
З 2 20 км 8/8 1000 м
[Sc]
+18.4 +11.1 62 +19 +20 1006.4 984.3 +18.4
С 1 20 км 8/6 1000 м
[Sc Ci fib]
+14.2 +11.6 84 +15 +15 1006.5 984.1
Местоположение метеостанции Тура (Эвенкия, Россия): широта 64.33 долгота 100.40 высота над уровнем моря 168 м.
В архиве по умолчанию представлена погода в Туре за последнюю неделю. Архивные данные за месяц целиком и за предыдущие месяцы, начиная с января 2011 года, Вы можете получить, выбрав интересующий диапазон дат из раскрывающегося списка и нажав кнопку "Найти!".
*Определитесь, кто Вы:
Внимание! Время в таблицах - всемирное. Для получения местного времени необходимо прибавить поправку, которая равна 7 ч.
Некоторые строки с данными для отдельных станций могут быть выделены курсивом. Это означает, что фактические данные отсутствуют по различным причинам, а приведенные значения являются расчетными модельными данными для данного пункта наблюдений.
Смотрите также архив погоды в соседних городах и на ближайших метеорологических станциях:
Партнеры нашего сайта:      
Пояснения к столбцам:
  • Ветер - указаны скорость ветра в м/с - средняя за 10 мин, порывы в срок и между сроками (в фигурных скобках) и направление, откуда дует ветер: С - северный,
  • СВ - северо-восточный, В - восточный, ЮВ - юго-восточный, Ю - южный, ЮЗ - юго-западный, З - западный, СЗ - северо-западный.
  • Видимость - горизонтальная дальность видимости в метрах или километрах. При видимости от 1 до 10 км при отсутствии осадков обычно наблюдается дымка, при ухудшении видимости до 1 км и менее - туман. В сухую погоду видимость может ухудшаться дымом, пылью или мглою.
  • Явления - указаны атмосферные явления, наблюдавшиеся в срок или в последний час перед сроком; фигурными скобками обозначены явления, наблюдавшиеся между сроками (за 1-3 часа до срока); квадратными скобками обозначены град или гололедные отложения с указанием их диаметра в мм.
  • Облачность - указаны через наклонную черту общая и нижняя облачность в баллах и высота нижней границы облаков в метрах; квадратными скобками обозначены формы облаков: Ci - перистые, Cs - перисто-слоистые, Cc - перисто-кучевые, Ac - высококучевые, As - высокослоистые, Sc - слоисто-кучевые, Ns - слоисто-дождевые, Cu - кучевые, Cb - кучево-дождевые. Подробнее классификацию облаков см. в Атласе облаков (PDF).
  • T - Температура воздуха - температура, измеренная на высоте 2 м над землей.
  • Td - Температура точки росы - температура, при понижении до которой содержащийся в воздухе водяной пар достигнет насыщения.
  • f - Относительная влажность воздуха - влажноcть воздуха, измеренная на высоте 2 м над землей.
  • Te - Эффективная температура - температура, которую ощущает одетый по сезону человек в тени. Характеристика душности погоды. При расчете учитывается влияние влажности воздуха и скорости ветра на теплоощущения человека.
  • Tes - Эффективная температура на солнце - температура, которую ощущает человек, с поправкой на солнечный нагрев. Характеристика знойности погоды. Зависит от высоты солнца над горизонтом, облачности и скорости ветра. Ночью, в пасмурную погоду, а также при ветре 12 м/с и более поправка равна нулю.
  • P - Атмосферное давление - приведенное к уровню моря атмосферное давление.
  • Po - Атмосферное давление - измеренное на уровне метеостанции атмосферное давление.
  • Tmin - Минимальная температура - минимум температуры воздуха на высоте 2 м над землей.
  • Tmax - Максимальная температура - максимум температуры воздуха на высоте 2 м над землей.
  • R - Количество осадков - Количество выпавших осадков за период времени, мм. При наведении курсора мыши на число - период времени, за который выпало указанное количество осадков.
  • R24 - Количество осадков - Количество выпавших осадков за 24 часа, мм.
  • S - Снежный покров - Высота снежного покрова, см. При наведении курсора мыши на число - состояние снежного покрова и степень покрытия местности в баллах.